Flag for U.S.A. Weather past 2 weeks in Albuquerque, New Mexico, U.S.A.

Now
37 °F

Clear.


Feels Like: 29 °F
Forecast: 26 / 58 °F
Wind: 12 mph from Northeast

Location: Albuquerque International Airport

Current Time: Mar 6, 2015 at 1:19:08 AM

Latest Report: Mar 6, 2015 at 12:52 AM


Visibility: 10 mi

Pressure: 30.35 "Hg

Humidity: 34%

Dew point: 11 °F

Location of AlbuquerqueLocation

Historic Weather in Albuquerque — Graph

°F

Albuquerque temperature yesterday

Maximum temperature yesterday: 52 °F (at 4:52 PM)
Minimum temperature yesterday: 23 °F (at 5:52 AM)
Average temperature yesterday: 37 °F

Past Weeks' High & Low Weather Summary

 TemperatureHumidityPressure
High67 °F (Feb 19, 3:52 PM)96% (Mar 1, 8:52 AM)30.45 "Hg (Mar 1, 8:52 AM)
Low16 °F (Feb 23, 5:02 AM)12% (Mar 5, 5:52 PM)29.63 "Hg (Feb 21, 2:52 PM)
Average39 °F53%30.00 "Hg
* Reported Feb 18 11:52 PM — Mar 5 11:52 PM, Albuquerque, Weather by CustomWeather, © 2015

Note: Actual official high and low records may vary slightly from our data, if they occured in-between our weather recording intervals... More about our weather records

Advertising

Albuquerque weather history for previous 24 hours

 ConditionsComfort  
Time TempWeatherWind HumidityBarometerVisibility
11:52 PM
Thu, Mar 5
36 °FClear.6 mph38%30.37 "Hg10 mi
10:52 PM39 °FClear.No wind31%30.37 "Hg10 mi
9:52 PM41 °FClear.6 mph32%30.37 "Hg10 mi
8:52 PM44 °FClear.8 mph26%30.37 "Hg10 mi
7:52 PM46 °FClear.8 mph24%30.37 "Hg10 mi
6:52 PM48 °FClear.9 mph20%30.34 "Hg10 mi
5:52 PM51 °FSunny.16 mph12%30.30 "Hg10 mi
4:52 PM52 °FSunny.No wind17%30.29 "Hg10 mi
3:52 PM50 °FSunny.6 mph21%30.30 "Hg10 mi
2:52 PM49 °FSunny.8 mph22%30.32 "Hg10 mi
1:52 PM45 °FSunny.3 mph27%30.35 "Hg10 mi
12:52 PM43 °FSunny.5 mph31%30.39 "Hg10 mi
11:52 AM42 °FSunny.5 mph29%30.42 "Hg10 mi
10:52 AM39 °FSunny.No wind30%30.42 "Hg10 mi
9:52 AM34 °FSunny.8 mph44%30.44 "Hg10 mi
8:52 AM29 °FSunny.6 mph61%30.45 "Hg10 mi
7:52 AM26 °FSunny.5 mph71%30.43 "Hg10 mi
6:52 AM23 °FSunny.7 mph81%30.40 "Hg10 mi
5:52 AM23 °FClear.6 mph78%30.38 "Hg10 mi
4:52 AM24 °FClear.9 mph77%30.35 "Hg10 mi
3:52 AM25 °FClear.5 mph75%30.32 "Hg10 mi
2:52 AM25 °FClear.6 mph75%30.34 "Hg10 mi
1:52 AM27 °FClear.6 mph72%30.31 "Hg10 mi
Weather by CustomWeather, © 2015

See weather overviewHow to use our weather pages